Home > Weather > Buffalo > Past weeks

Flag for USA Weather for the Past 2 Weeks in Buffalo, New York, USA

Now
60 °F

Partly sunny.


Feels Like: 60 °F
Forecast: 48 / 60 °F
Wind: 15 mph from Northeast

Location: Greater Buffalo International Airport

Current Time: May 5, 2016 at 6:18:24 PM

Latest Report: May 5, 2016 at 5:54 PM


Visibility: 10 mi

Pressure: 29.78 "Hg

Humidity: 52%

Dew Point: 42 °F

Location of BuffaloLocation

Historic Weather in Buffalo — Graph

°F

Buffalo Temperature Yesterday

Maximum temperature yesterday: 62 °F (at 2:54 PM)
Minimum temperature yesterday: 43 °F (at 3:54 AM)
Average temperature yesterday: 53 °F

High & Low Weather Summary for the Past Weeks

 TemperatureHumidityPressure
High69 °F (Apr 21, 11:54 AM)97% (May 1, 7:54 PM)30.21 "Hg (May 1, 7:54 PM)
Low31 °F (Apr 27, 5:54 AM)19% (Apr 20, 4:54 PM)29.66 "Hg (May 4, 3:54 PM)
Average49 °F62%29.97 "Hg
* Reported Apr 20 4:54 PM — May 5 4:54 PM, Buffalo, Weather by CustomWeather, © 2016

Note: Actual official high and low records may vary slightly from our data, if they occured in-between our weather recording intervals... More about our weather records

Advertising

Buffalo Weather History for the Previous 24 Hours

Scroll right to see more
 ConditionsComfort  
Time TempWeatherWind HumidityBarometerVisibility
4:54 PM
Thu, May 5
59 °FPartly sunny.13 mph56%29.78 "Hg10 mi
3:54 PM59 °FPartly sunny.14 mph58%29.78 "Hg10 mi
2:54 PM59 °FPartly sunny.15 mph58%29.80 "Hg10 mi
1:54 PM58 °FPartly sunny.14 mph60%29.80 "Hg10 mi
12:54 PM60 °FPartly sunny.13 mph58%29.80 "Hg10 mi
11:54 AM57 °FBroken clouds.14 mph64%29.80 "Hg10 mi
10:54 AM55 °FPartly sunny.10 mph72%29.80 "Hg10 mi
10:01 AM52 °FBroken clouds.10 mph83%29.79 "Hg10 mi
8:54 AM49 °FLow clouds.8 mph90%29.78 "Hg10 mi
7:54 AM47 °FFog.9 mph93%29.77 "Hg5 mi
6:54 AM46 °FFog.8 mph96%29.76 "Hg0 mi
5:54 AM46 °FFog.7 mph96%29.74 "Hg0 mi
4:54 AM47 °FMostly cloudy.7 mph93%29.73 "Hg10 mi
3:54 AM47 °FPassing clouds.7 mph90%29.72 "Hg10 mi
2:54 AM48 °FPassing clouds.7 mph86%29.71 "Hg10 mi
1:54 AM49 °FPassing clouds.5 mph80%29.72 "Hg10 mi
12:54 AM50 °FPassing clouds.6 mph77%29.72 "Hg10 mi
11:54 PM
Wed, May 4
51 °FPartly cloudy.9 mph74%29.72 "Hg10 mi
10:54 PM53 °FPartly cloudy.9 mph69%29.72 "Hg10 mi
9:54 PM53 °FPartly cloudy.10 mph69%29.72 "Hg10 mi
8:54 PM55 °FPartly sunny.13 mph64%29.70 "Hg10 mi
7:54 PM57 °FBroken clouds.12 mph60%29.69 "Hg10 mi
6:54 PM59 °FPartly sunny.13 mph56%29.68 "Hg10 mi
Weather by CustomWeather, © 2016

See weather overviewHow to use our weather pages